Location: Alphen aan den Rijn
(52.1277°N, 4.6689°E)
Time: 17:55:00
(UTC+02:00)

OTV 5 (USA 277) - Visible Passes

Search period start: 24 September 2017 00:00
Search period end: 04 October 2017 00:00
Orbit: 404 x 417 km, 43.0° (Epoch: 07 September)

Date Brightness Start Highest point End Pass type
(mag) Time Alt. Az. Time Alt. Az. Time Alt. Az.
24 Sep ? 05:12:31 12° SE 05:12:31 12° SE 05:13:13 10° SE visible
24 Sep ? 06:45:49 10° SW 06:48:01 17° S 06:50:14 10° SE visible
25 Sep ? 05:56:38 17° S 05:57:08 17° S 05:59:23 10° SE visible
26 Sep ? 05:08:01 12° SE 05:08:01 12° SE 05:08:27 10° SE visible
26 Sep ? 06:40:56 10° SW 06:42:49 14° SSW 06:44:40 10° SSE visible
27 Sep ? 05:52:12 16° S 05:52:12 16° S 05:54:02 10° SSE visible
28 Sep ? 06:37:16 10° SSW 06:37:33 10° SSW 06:37:48 10° SSW visible
29 Sep ? 05:48:03 10° S 05:48:03 10° S 05:48:09 10° S visible
